Таш-Кумыр

Киргизия     41°20′39″N   72°13′10″E
темп.,
°C
ветер,
м/с
пор.,
м/с
влажн.,
%
обл.,
%
осадки,
мм/ч
давл.,
гПа
погр.,
м
13 апреля, вт
вт1300:00+14ссв3360100 1.1 101954
03:00+12всв1166100 0.1 102015
06:00+11св1168100 0.1 102010
09:00+13вюв1157100 0.0 1021204
12:00+17зюз2144100 0.0 1021928
15:00+18зюз3239100 0.0 10201419
18:00+18ююз2137100 0.0 10191412
21:00+15св224880 0.0 102156
14 апреля, ср
ср1400:00+13ссв45656 0.0 1021111
03:00+12ссв33635 0.0 101837
06:00+11св32625 0.0 101820
09:00+15с1150100 0.0 1019322
12:00+19з1239100 0.0 10161181
15:00+22зюз2230100 0.0 10131735
18:00+22юз3232100 0.0 1013925
21:00+16всв11470 0.0 101411
15 апреля, чт
чт1500:00+15ссв225174 0.0 101312
03:00+14ссв32480 0.0 101219
06:00+13св2252100 0.1 101315
09:00+17ссз014424 0.2 1014217
12:00+21юз213587 0.3 10131037
15:00+24зюз212987 0.0 10111623
18:00+23юз2228100 0.0 10101603
21:00+18в2239100 0.0 101213
16 апреля, пт
пт1600:00+17всв2242100 0.0 101211
03:00+15всв1147100 0.0 101211
06:00+14всв1150100 0.0 101311
09:00+17ююв1145100 0.0 1014288
12:00+21ю3337100 0.0 10131057
15:00+23ююз3327100 0.0 10121764
18:00+24ю23235 0.0 10112183
21:00+18в22340 0.0 101315
17 апреля, сб
сб1700:00+16св22380 0.0 101314
03:00+15св33401 0.0 101119
06:00+14св224352 0.0 101114
09:00+19с1236100 0.0 1011272
12:00+22юз2129100 0.0 10101229
15:00+24зюз3322100 0.0 10092210
18:00+23юз2220100 0.0 10082072
21:00+18вюв2226100 0.0 101012